Starlink 31584

operational
NORAD ID: 59862 Int'l Des: 2024-098 Owner: SPXS Country: US Constellation: starlink
LEOCIRCULAR

Über Starlink 31584

Beschreibung wird geladen...

Live-Position

3D-Globus wird geladen...

Nächste Überflüge

Höhenverlauf

Altitude vs Time

uPlot chart will show altitude changes over time

Zweizeiliger Elementsatz

1 59862U 24098E 25257.51102472 .00000589 00000-0 30919-4 0 9994
2 59862 42.9997 192.8111 0001780 271.7163 88.3484 15.27579772 74905
Epoch: 14. Sept. 2025 • Age: 23 hours

Aktueller Status

Höhe 494.7 km
Geschwindigkeit 7.62 km/s
Subsatellitenpunkt -41.91°S, 84.48°W
Startdatum 24. Mai 2024
Alter 1.3 years
Typ internet

Technische Details

Klassifizierung Payload
Masse 730.00 kg
Trockenmasse 700.00 kg
Gesamtmasse 730.00 kg
Länge 0.30 m
Durchmesser 4.10 m
Spannweite 29.00 m
Form Box + pan
Hersteller SPXS
Bus-Typ Starlink V2M
Phasenstatus In Orbit
Besitzer/Staat SPXS/US

Große Konstellationen

Loading constellations...